• In Deutschland
  • Länderverzeichnis
  • Für 7 Tage
  • Wassertemperatur
  • Satellitenkarten
  • Wetterkarte
  • Widgets
  • user-avatar
    Anmelden

    Stündliche Wetter Meschede

    Heute, 21 Juni, Donnerstag

    Zeit Temperatur Niederschläge Wind Luftdruck Luftfeuchtigkeit
    00:00 +19°C° 0 mm 1 m/S 738 mmHg 87%
    01:00 +18°C° 0 mm 1 m/S 738 mmHg 90%
    02:00 +18°C° 0 mm 1 m/S 737 mmHg 91%
    03:00 +16°C° 0 mm 2 m/S 737 mmHg 93%
    04:00 +16°C° 0 mm 2 m/S 737 mmHg 94%
    05:00 +17°C° 0 mm 3 m/S 736 mmHg 91%
    06:00 +18°C° 0 mm 4 m/S 736 mmHg 88%
    07:00 +17°C° 0 mm 5 m/S 736 mmHg 85%
    08:00 +16°C° 0,3 mm 5 m/S 736 mmHg 87%
    09:00 +16°C° 0,3 mm 5 m/S 736 mmHg 88%
    10:00 +15°C° 0,3 mm 6 m/S 737 mmHg 90%
    11:00 +14°C° 0,2 mm 6 m/S 737 mmHg 84%
    12:00 +14°C° 0,2 mm 6 m/S 737 mmHg 78%
    13:00 +14°C° 0,2 mm 7 m/S 738 mmHg 72%
    14:00 +14°C° 0 mm 7 m/S 738 mmHg 64%
    15:00 +15°C° 0 mm 7 m/S 739 mmHg 57%
    16:00 +16°C° 0 mm 8 m/S 739 mmHg 49%
    17:00 +15°C° 0 mm 7 m/S 739 mmHg 54%
    18:00 +14°C° 0 mm 6 m/S 740 mmHg 59%
    19:00 +13°C° 0 mm 5 m/S 740 mmHg 64%
    20:00 +12°C° 0 mm 5 m/S 741 mmHg 68%
    21:00 +10°C° 0 mm 4 m/S 741 mmHg 71%
    22:00 +8°C° 0 mm 4 m/S 742 mmHg 75%
    23:00 +8°C° 0 mm 4 m/S 742 mmHg 76%

    Morgen, 22 Juni, Freitag

    Zeit Temperatur Niederschläge Wind Luftdruck Luftfeuchtigkeit
    00:00 +7°C° 0 mm 4 m/S 742 mmHg 76%
    01:00 +7°C° 0 mm 4 m/S 742 mmHg 77%
    02:00 +7°C° 0 mm 5 m/S 742 mmHg 76%
    03:00 +8°C° 0 mm 5 m/S 742 mmHg 75%
    04:00 +8°C° 0 mm 6 m/S 741 mmHg 73%
    05:00 +8°C° 0,1 mm 6 m/S 741 mmHg 74%
    06:00 +8°C° 0,1 mm 6 m/S 741 mmHg 75%
    07:00 +9°C° 0,1 mm 6 m/S 741 mmHg 77%
    08:00 +9°C° 0,1 mm 6 m/S 742 mmHg 77%
    09:00 +9°C° 0,1 mm 6 m/S 742 mmHg 78%
    10:00 +10°C° 0,1 mm 6 m/S 742 mmHg 78%
    11:00 +10°C° 0,2 mm 6 m/S 742 mmHg 78%
    12:00 +11°C° 0,2 mm 6 m/S 742 mmHg 78%
    13:00 +11°C° 0,2 mm 6 m/S 742 mmHg 78%
    14:00 +12°C° 0,3 mm 5 m/S 742 mmHg 78%
    15:00 +13°C° 0,3 mm 5 m/S 742 mmHg 78%
    16:00 +13°C° 0,3 mm 5 m/S 743 mmHg 78%
    17:00 +12°C° 0,2 mm 5 m/S 743 mmHg 80%
    18:00 +12°C° 0,2 mm 5 m/S 743 mmHg 81%
    19:00 +12°C° 0,2 mm 4 m/S 743 mmHg 83%
    20:00 +11°C° 0,1 mm 4 m/S 743 mmHg 85%
    21:00 +10°C° 0,1 mm 4 m/S 744 mmHg 88%
    22:00 +9°C° 0,1 mm 3 m/S 744 mmHg 90%
    23:00 +9°C° 0 mm 3 m/S 744 mmHg 91%

    übermorgen, 23 Juni, Samstag

    Zeit Temperatur Niederschläge Wind Luftdruck Luftfeuchtigkeit
    00:00 +8°C° 0 mm 3 m/S 744 mmHg 92%
    01:00 +7°C° 0 mm 3 m/S 744 mmHg 93%
    02:00 +7°C° 0 mm 3 m/S 744 mmHg 93%
    03:00 +7°C° 0 mm 3 m/S 744 mmHg 94%
    04:00 +5°C° 0 mm 3 m/S 744 mmHg 95%
    05:00 +7°C° 0 mm 3 m/S 744 mmHg 92%
    06:00 +8°C° 0 mm 3 m/S 744 mmHg 89%
    07:00 +8°C° 0 mm 4 m/S 744 mmHg 86%
    08:00 +10°C° 0 mm 4 m/S 744 mmHg 83%
    09:00 +11°C° 0 mm 4 m/S 744 mmHg 79%
    10:00 +12°C° 0 mm 4 m/S 744 mmHg 76%
    11:00 +12°C° 0,1 mm 4 m/S 744 mmHg 75%
    12:00 +13°C° 0,1 mm 4 m/S 744 mmHg 73%
    13:00 +14°C° 0,1 mm 4 m/S 744 mmHg 72%
    14:00 +14°C° 0,1 mm 4 m/S 743 mmHg 70%
    15:00 +15°C° 0,1 mm 4 m/S 743 mmHg 68%
    16:00 +15°C° 0,1 mm 4 m/S 743 mmHg 66%
    17:00 +16°C° 0 mm 3 m/S 743 mmHg 69%
    18:00 +14°C° 0 mm 3 m/S 743 mmHg 71%
    19:00 +15°C° 0 mm 2 m/S 743 mmHg 74%
    20:00 +14°C° 0 mm 2 m/S 743 mmHg 79%
    21:00 +13°C° 0 mm 2 m/S 743 mmHg 85%
    22:00 +12°C° 0 mm 1 m/S 743 mmHg 90%
    23:00 +11°C° 0 mm 1 m/S 743 mmHg 91%

    24 Juni, Sonntag

    Zeit Temperatur Niederschläge Wind Luftdruck Luftfeuchtigkeit
    00:00 +10°C° 0 mm 1 m/S 743 mmHg 93%
    01:00 +10°C° 0 mm 1 m/S 743 mmHg 95%
    02:00 +9°C° 0 mm 1 m/S 743 mmHg 95%
    03:00 +9°C° 0 mm 1 m/S 743 mmHg 95%
    04:00 +9°C° 0 mm 1 m/S 743 mmHg 95%
    05:00 +9°C° 0 mm 2 m/S 743 mmHg 93%
    06:00 +10°C° 0 mm 2 m/S 743 mmHg 91%
    07:00 +10°C° 0 mm 2 m/S 743 mmHg 88%
    08:00 +12°C° 0 mm 2 m/S 743 mmHg 85%
    09:00 +12°C° 0 mm 3 m/S 743 mmHg 81%
    10:00 +13°C° 0 mm 3 m/S 743 mmHg 78%
    11:00 +14°C° 0,1 mm 3 m/S 743 mmHg 75%
    12:00 +16°C° 0,1 mm 3 m/S 743 mmHg 72%
    13:00 +17°C° 0,1 mm 3 m/S 743 mmHg 70%
    14:00 +17°C° 0,1 mm 3 m/S 743 mmHg 70%
    15:00 +17°C° 0,1 mm 3 m/S 743 mmHg 69%
    16:00 +17°C° 0,1 mm 4 m/S 743 mmHg 69%
    17:00 +17°C° 0,1 mm 3 m/S 743 mmHg 72%
    18:00 +17°C° 0,1 mm 3 m/S 743 mmHg 75%
    19:00 +16°C° 0,1 mm 3 m/S 743 mmHg 78%
    20:00 +14°C° 0 mm 3 m/S 744 mmHg 84%
    21:00 +14°C° 0 mm 2 m/S 744 mmHg 89%
    22:00 +13°C° 0 mm 2 m/S 744 mmHg 94%
    23:00 +13°C° 0 mm 2 m/S 744 mmHg 95%

    25 Juni, Montag

    Zeit Temperatur Niederschläge Wind Luftdruck Luftfeuchtigkeit
    00:00 +13°C° 0 mm 1 m/S 744 mmHg 96%
    01:00 +13°C° 0 mm 1 m/S 744 mmHg 96%
    02:00 +12°C° 0 mm 1 m/S 744 mmHg 97%
    03:00 +12°C° 0 mm 1 m/S 744 mmHg 97%
    04:00 +12°C° 0 mm 1 m/S 744 mmHg 97%
    05:00 +13°C° 0 mm 2 m/S 744 mmHg 94%
    06:00 +13°C° 0 mm 2 m/S 744 mmHg 91%
    07:00 +14°C° 0 mm 2 m/S 744 mmHg 88%
    08:00 +15°C° 0 mm 2 m/S 744 mmHg 82%
    09:00 +16°C° 0 mm 2 m/S 745 mmHg 75%
    10:00 +18°C° 0 mm 2 m/S 745 mmHg 69%
    11:00 +19°C° 0 mm 3 m/S 745 mmHg 65%
    12:00 +20°C° 0 mm 3 m/S 744 mmHg 61%
    13:00 +21°C° 0 mm 4 m/S 744 mmHg 57%
    14:00 +21°C° 0 mm 4 m/S 744 mmHg 59%
    15:00 +21°C° 0 mm 4 m/S 744 mmHg 61%
    16:00 +21°C° 0 mm 4 m/S 744 mmHg 64%
    17:00 +21°C° 0 mm 3 m/S 744 mmHg 67%
    18:00 +20°C° 0 mm 3 m/S 744 mmHg 71%
    19:00 +20°C° 0 mm 2 m/S 744 mmHg 74%
    20:00 +18°C° 0 mm 2 m/S 744 mmHg 80%
    21:00 +16°C° 0 mm 2 m/S 744 mmHg 86%
    22:00 +15°C° 0 mm 2 m/S 745 mmHg 91%
    23:00 +14°C° 0 mm 1 m/S 745 mmHg 92%

    26 Juni, Dienstag

    Zeit Temperatur Niederschläge Wind Luftdruck Luftfeuchtigkeit
    00:00 +13°C° 0 mm 1 m/S 745 mmHg 93%
    01:00 +12°C° 0 mm 1 m/S 745 mmHg 94%
    02:00 +12°C° 0 mm 1 m/S 745 mmHg 94%
    03:00 +12°C° 0 mm 1 m/S 745 mmHg 94%
    04:00 +11°C° 0 mm 1 m/S 744 mmHg 95%
    05:00 +13°C° 0 mm 1 m/S 745 mmHg 90%
    06:00 +14°C° 0 mm 1 m/S 745 mmHg 86%
    07:00 +15°C° 0 mm 0 m/S 745 mmHg 82%
    08:00 +19°C° 0 mm 1 m/S 745 mmHg 76%
    09:00 +21°C° 0 mm 1 m/S 745 mmHg 69%
    10:00 +23°C° 0 mm 2 m/S 745 mmHg 63%
    11:00 +24°C° 0 mm 2 m/S 745 mmHg 60%
    12:00 +25°C° 0 mm 3 m/S 745 mmHg 57%
    13:00 +26°C° 0 mm 3 m/S 745 mmHg 53%
    14:00 +26°C° 0 mm 3 m/S 745 mmHg 53%
    15:00 +26°C° 0 mm 3 m/S 745 mmHg 53%
    16:00 +26°C° 0 mm 3 m/S 745 mmHg 52%
    17:00 +26°C° 0 mm 3 m/S 745 mmHg 57%
    18:00 +25°C° 0 mm 2 m/S 745 mmHg 63%
    19:00 +24°C° 0 mm 2 m/S 745 mmHg 68%
    20:00 +21°C° 0 mm 2 m/S 745 mmHg 74%
    21:00 +19°C° 0 mm 2 m/S 745 mmHg 80%
    22:00 +18°C° 0 mm 2 m/S 745 mmHg 86%
    23:00 +17°C° 0 mm 2 m/S 745 mmHg 87%
    Mehr zeigen